Escanaba, MI

7:14 AM EDT on July 23, 2017 (GMT -0400)
Delta County

Weather History for KESC - December, 2010

Change the Weather History Date:

Monday, December 13, 2010

  Actual Average Record
Temperature  
Mean Temperature 12 °F -  
Max Temperature 17 °F 30 °F 55 °F (2012)
Min Temperature 8 °F 16 °F -8 °F (1976)
Degree Days  
Heating Degree Days 52    
Moisture  
Dew Point 2 °F    
Average Humidity 62    
Maximum Humidity 73    
Minimum Humidity 49    
Precipitation  
Precipitation 0.00 in - - ()
Sea Level Pressure  
Sea Level Pressure 30.11 in    
Wind  
Wind Speed 12 mph (NNW)    
Max Wind Speed 18 mph    
Max Gust Speed 32 mph    
Visibility 10 miles    
Events      
Averages and records for this station are not official NWS values.
T = Trace of Precipitation, MM = Missing Value Source: NWS Daily Summary

Daily Weather History Graph

Daily Weather History Graph

Search for Another Location

Airport or City:

Trip Planner

Search our weather history database for the weather conditions in past years. The results will help you decide how hot, cold, wet, or windy it might be!

Date:

Astronomy

Dec. 13, 2010 Rise Set
Actual Time 8:20 AM EST 5:04 PM EST
Civil Twilight 7:46 AM EST 5:38 PM EST
Nautical Twilight 7:08 AM EST 6:16 PM EST
Astronomical Twilight 6:32 AM EST 6:52 PM EST
Moon 12:38 PM EST (12/13) 12:24 AM EST (12/13)
Length of Visible Light 9h 51m
Length of Day
8h 43m
Waxing Crescent, 51% of the Moon is Illuminated
Dec 13
Waxing Crescent
Dec 21
Full
Dec 27
Last Quarter
Jan 4
New
Jan 12
First Quarter

Hourly Weather History & Observations

Time (EST) Temp. Windchill Dew Point Humidity Pressure Visibility Wind Dir Wind Speed Gust Speed Precip Events Conditions
1:35 AM 12.2 °F -3.7 °F -0.4 °F 57% 29.99 in 10.0 mi North 15.0 mph 24.2 mph N/A   Clear
1:55 AM 12.2 °F -3.7 °F 1.4 °F 62% 30.00 in 9.0 mi North 15.0 mph 25.3 mph N/A   Clear
2:15 AM 10.4 °F -6.0 °F 1.4 °F 67% 30.00 in 10.0 mi North 15.0 mph 21.9 mph N/A   Clear
2:35 AM 10.4 °F -2.4 °F 1.4 °F 67% 30.01 in 10.0 mi North 9.2 mph 18.4 mph N/A   Clear
2:55 AM 10.4 °F -4.8 °F 1.4 °F 67% 30.01 in 9.0 mi North 12.7 mph 20.7 mph N/A   Partly Cloudy
3:15 AM 10.4 °F -6.6 °F -0.4 °F 62% 30.01 in 10.0 mi North 16.1 mph 23.0 mph N/A   Clear
3:35 AM 10.4 °F -4.1 °F -0.4 °F 62% 30.01 in 10.0 mi North 11.5 mph 21.9 mph N/A   Clear
3:55 AM 10.4 °F -2.4 °F -0.4 °F 62% 30.02 in 10.0 mi North 9.2 mph 23.0 mph N/A   Clear
4:15 AM 10.4 °F -2.4 °F -0.4 °F 62% 30.02 in 10.0 mi North 9.2 mph 25.3 mph N/A   Partly Cloudy
4:35 AM 10.4 °F -4.1 °F -0.4 °F 62% 30.02 in 10.0 mi NNW 11.5 mph 20.7 mph N/A   Clear
4:55 AM 10.4 °F -3.3 °F -0.4 °F 62% 30.02 in 10.0 mi North 10.4 mph 17.3 mph N/A   Clear
5:35 AM 10.4 °F -6.0 °F -0.4 °F 62% 30.02 in 10.0 mi NNW 15.0 mph 20.7 mph N/A   Clear
5:55 AM 10.4 °F -3.3 °F -0.4 °F 62% 30.03 in 10.0 mi NNW 10.4 mph 21.9 mph N/A   Scattered Clouds
6:35 AM 10.4 °F -1.5 °F 1.4 °F 67% 30.04 in 9.0 mi NNW 8.1 mph - N/A   Mostly Cloudy
6:55 AM 10.4 °F -2.4 °F -0.4 °F 62% 30.04 in 10.0 mi NNW 9.2 mph 16.1 mph N/A   Scattered Clouds
7:15 AM 10.4 °F -2.4 °F -0.4 °F 62% 30.05 in 10.0 mi NNW 9.2 mph 17.3 mph N/A   Partly Cloudy
7:35 AM 10.4 °F -4.8 °F 1.4 °F 67% 30.05 in 10.0 mi NNW 12.7 mph 19.6 mph N/A   Clear
7:55 AM 10.4 °F -3.3 °F 1.4 °F 67% 30.05 in 10.0 mi NNW 10.4 mph 16.1 mph N/A   Partly Cloudy
8:15 AM 10.4 °F -2.4 °F 1.4 °F 67% 30.06 in 10.0 mi NNW 9.2 mph 17.3 mph N/A   Partly Cloudy
8:35 AM 10.4 °F -1.5 °F 1.4 °F 67% 30.07 in 10.0 mi NNW 8.1 mph 16.1 mph N/A   Clear
8:55 AM 10.4 °F -1.5 °F -0.4 °F 62% 30.07 in 10.0 mi NNW 8.1 mph - N/A   Clear
9:15 AM 10.4 °F -3.3 °F -0.4 °F 62% 30.08 in 10.0 mi NNW 10.4 mph - N/A   Clear
9:35 AM 12.2 °F -0.2 °F 1.4 °F 62% 30.09 in 10.0 mi NNW 9.2 mph - N/A   Clear
10:15 AM 12.2 °F -3.1 °F 1.4 °F 62% 30.09 in 10.0 mi North 13.8 mph 19.6 mph N/A   Clear
10:35 AM 14.0 °F 0.5 °F 3.2 °F 62% 30.10 in 10.0 mi North 11.5 mph 20.7 mph N/A   Scattered Clouds
10:55 AM 15.8 °F 1.4 °F 3.2 °F 58% 30.10 in 10.0 mi North 13.8 mph 18.4 mph N/A   Scattered Clouds
11:15 AM 15.8 °F 0.3 °F 1.4 °F 53% 30.11 in 10.0 mi North 16.1 mph 25.3 mph N/A   Mostly Cloudy
11:35 AM 15.8 °F 0.9 °F 1.4 °F 53% 30.11 in 10.0 mi North 15.0 mph 28.8 mph N/A   Scattered Clouds
11:55 AM 15.8 °F -0.2 °F 3.2 °F 58% 30.11 in 9.0 mi North 17.3 mph 27.6 mph N/A   Partly Cloudy
12:15 PM 15.8 °F -0.6 °F 1.4 °F 53% 30.11 in 10.0 mi North 18.4 mph 25.3 mph N/A   Scattered Clouds
12:35 PM 15.8 °F 2.1 °F 1.4 °F 53% 30.11 in 10.0 mi North 12.7 mph 21.9 mph N/A   Mostly Cloudy
12:55 PM 15.8 °F 0.3 °F 1.4 °F 53% 30.11 in 10.0 mi North 16.1 mph 29.9 mph N/A   Mostly Cloudy
1:15 PM 15.8 °F 2.7 °F 3.2 °F 58% 30.12 in 10.0 mi North 11.5 mph 20.7 mph N/A   Scattered Clouds
1:35 PM 17.6 °F 4.3 °F 1.4 °F 49% 30.12 in 10.0 mi North 12.7 mph 27.6 mph N/A   Scattered Clouds
1:55 PM 17.6 °F 4.3 °F 1.4 °F 49% 30.12 in 10.0 mi North 12.7 mph 27.6 mph N/A   Partly Cloudy
2:15 PM 17.6 °F 4.3 °F 1.4 °F 49% 30.12 in 10.0 mi North 12.7 mph 32.2 mph N/A   Scattered Clouds
2:35 PM 17.6 °F 3.2 °F 1.4 °F 49% 30.13 in 10.0 mi North 15.0 mph 23.0 mph N/A   Mostly Cloudy
2:55 PM 17.6 °F 3.2 °F 3.2 °F 53% 30.14 in 10.0 mi NNW 15.0 mph 21.9 mph N/A   Mostly Cloudy
3:15 PM 15.8 °F 2.1 °F 6.8 °F 68% 30.14 in 5.0 mi North 12.7 mph 16.1 mph N/A   Overcast
3:35 PM 15.8 °F 4.2 °F 5.0 °F 62% 30.15 in 10.0 mi North 9.2 mph - N/A   Overcast
3:55 PM 17.6 °F 5.0 °F 3.2 °F 53% 30.15 in 10.0 mi NNW 11.5 mph 17.3 mph N/A   Overcast
4:15 PM 15.8 °F 2.7 °F 6.8 °F 68% 30.16 in 9.0 mi NNW 11.5 mph - N/A   Overcast
4:35 PM 15.8 °F 2.7 °F 6.8 °F 68% 30.17 in 4.0 mi NNW 11.5 mph 18.4 mph N/A   Overcast
4:55 PM 15.8 °F 6.1 °F 6.8 °F 68% 30.17 in 7.0 mi NW 6.9 mph - N/A   Overcast
5:15 PM 15.8 °F 2.1 °F 5.0 °F 62% 30.17 in 10.0 mi NW 12.7 mph 17.3 mph N/A   Overcast
5:55 PM 15.8 °F 5.1 °F 5.0 °F 62% 30.18 in 10.0 mi NW 8.1 mph - N/A   Overcast
6:15 PM 15.8 °F 4.2 °F 5.0 °F 62% 30.18 in 10.0 mi NW 9.2 mph 19.6 mph N/A   Overcast
6:35 PM 15.8 °F 4.2 °F 3.2 °F 58% 30.18 in 10.0 mi NW 9.2 mph - N/A   Overcast
6:55 PM 14.0 °F 2.0 °F 3.2 °F 62% 30.18 in 10.0 mi NW 9.2 mph - N/A   Overcast
7:15 PM 14.0 °F 2.0 °F 3.2 °F 62% 30.18 in 10.0 mi NW 9.2 mph - N/A   Mostly Cloudy
7:35 PM 12.2 °F -1.0 °F 3.2 °F 67% 30.17 in 10.0 mi NW 10.4 mph - N/A   Partly Cloudy
7:55 PM 12.2 °F 0.7 °F 1.4 °F 62% 30.18 in 10.0 mi WNW 8.1 mph - N/A   Clear
8:15 PM 12.2 °F -1.0 °F 1.4 °F 62% 30.17 in 10.0 mi NW 10.4 mph - N/A   Partly Cloudy
8:35 PM 12.2 °F -1.8 °F 1.4 °F 62% 30.16 in 10.0 mi WNW 11.5 mph 16.1 mph N/A   Partly Cloudy
8:55 PM 10.4 °F -2.4 °F 1.4 °F 67% 30.17 in 10.0 mi NW 9.2 mph - N/A   Clear
9:15 PM 10.4 °F -4.1 °F 1.4 °F 67% 30.17 in 10.0 mi NW 11.5 mph - N/A   Mostly Cloudy
9:35 PM 10.4 °F -2.4 °F 1.4 °F 67% 30.17 in 10.0 mi WNW 9.2 mph 16.1 mph N/A   Overcast
9:55 PM 10.4 °F -4.1 °F 1.4 °F 67% 30.17 in 10.0 mi WNW 11.5 mph 16.1 mph N/A   Mostly Cloudy
10:15 PM 10.4 °F -4.1 °F 1.4 °F 67% 30.16 in 9.0 mi NW 11.5 mph 17.3 mph N/A   Mostly Cloudy
10:35 PM 10.4 °F -3.3 °F 1.4 °F 67% 30.16 in 10.0 mi NW 10.4 mph - N/A   Scattered Clouds
10:55 PM 10.4 °F -2.4 °F -0.4 °F 62% 30.16 in 10.0 mi WNW 9.2 mph - N/A   Scattered Clouds
11:15 PM 10.4 °F -2.4 °F 1.4 °F 67% 30.17 in 10.0 mi NW 9.2 mph - N/A   Scattered Clouds
11:35 PM 8.6 °F -3.7 °F 1.4 °F 73% 30.17 in 10.0 mi NW 8.1 mph - N/A   Partly Cloudy
11:55 PM 10.4 °F -2.4 °F 1.4 °F 67% 30.17 in 9.0 mi WNW 9.2 mph - N/A   Mostly Cloudy